Time,TemperatureF,DewpointF,PressureIn,WindDirection,WindDirectionDegrees,WindSpeedMPH,WindSpeedGustMPH,Humidity,HourlyPrecipIn,Conditions,Clouds,dailyrainin,SoftwareType,DateUTC
2013-11-15 00:23:00,50.0,33.0,-100.00,WNW,295,5.0,13.0,52,0.00,,,-99.99,,2013-11-15 05:23:00,
2013-11-15 00:33:00,50.0,33.0,-100.00,WNW,295,5.0,13.0,52,0.00,,,-99.99,,2013-11-15 05:33:00,
2013-11-15 00:43:00,50.0,33.0,-100.00,WNW,295,5.0,13.0,52,0.00,,,-99.99,,2013-11-15 05:43:00,
2013-11-15 01:23:00,50.0,34.0,-100.00,WNW,284,4.0,11.0,54,0.00,,,-99.99,,2013-11-15 06:23:00,
2013-11-15 01:33:00,50.0,34.0,-100.00,WNW,284,4.0,11.0,54,0.00,,,-99.99,,2013-11-15 06:33:00,
2013-11-15 01:43:00,50.0,34.0,-100.00,WNW,284,4.0,11.0,54,0.00,,,-99.99,,2013-11-15 06:43:00,
2013-11-15 02:22:00,50.0,35.0,-100.00,WNW,296,3.0,8.0,56,0.00,,,-99.99,,2013-11-15 07:22:00,
2013-11-15 02:32:00,50.0,35.0,-100.00,WNW,296,3.0,8.0,56,0.00,,,-99.99,,2013-11-15 07:32:00,
2013-11-15 02:42:00,50.0,35.0,-100.00,WNW,296,3.0,8.0,56,0.00,,,-99.99,,2013-11-15 07:42:00,
2013-11-15 03:22:00,49.0,35.0,-100.00,WSW,256,3.0,8.0,57,0.00,,,-99.99,,2013-11-15 08:22:00,
2013-11-15 03:32:00,49.0,35.0,-100.00,WSW,256,3.0,8.0,57,0.00,,,-99.99,,2013-11-15 08:32:00,
2013-11-15 03:42:00,49.0,35.0,-100.00,WSW,256,3.0,8.0,57,0.00,,,-99.99,,2013-11-15 08:42:00,
2013-11-15 04:22:00,49.0,35.0,-100.00,WNW,286,2.0,8.0,58,0.00,,,-99.99,,2013-11-15 09:22:00,
2013-11-15 04:33:00,49.0,35.0,-100.00,WNW,286,2.0,8.0,58,0.00,,,-99.99,,2013-11-15 09:33:00,
2013-11-15 04:43:00,49.0,35.0,-100.00,WNW,286,2.0,8.0,58,0.00,,,-99.99,,2013-11-15 09:43:00,
2013-11-15 05:23:00,50.0,36.0,-100.00,WNW,297,4.0,9.0,58,0.00,,,-99.99,,2013-11-15 10:23:00,
2013-11-15 05:33:00,50.0,36.0,-100.00,WNW,297,4.0,9.0,58,0.00,,,-99.99,,2013-11-15 10:33:00,
2013-11-15 05:43:00,50.0,36.0,-100.00,WNW,297,4.0,9.0,58,0.00,,,-99.99,,2013-11-15 10:43:00,
2013-11-15 06:22:00,49.0,35.0,-100.00,WNW,299,5.0,8.0,58,0.00,,,-99.99,,2013-11-15 11:22:00,
2013-11-15 06:33:00,49.0,35.0,-100.00,WNW,299,5.0,8.0,58,0.00,,,-99.99,,2013-11-15 11:33:00,
2013-11-15 06:42:00,49.0,35.0,-100.00,WNW,299,5.0,8.0,58,0.00,,,-99.99,,2013-11-15 11:42:00,
2013-11-15 07:22:00,47.0,31.0,-100.00,WNW,285,2.0,6.0,53,0.00,,,-99.99,,2013-11-15 12:22:00,
2013-11-15 07:32:00,47.0,31.0,-100.00,WNW,285,2.0,6.0,53,0.00,,,-99.99,,2013-11-15 12:32:00,
2013-11-15 07:42:00,47.0,31.0,-100.00,WNW,285,2.0,6.0,53,0.00,,,-99.99,,2013-11-15 12:42:00,
2013-11-15 08:22:00,50.0,35.0,-100.00,NW,307,2.0,6.0,57,0.00,,,-99.99,,2013-11-15 13:22:00,
2013-11-15 08:32:00,50.0,35.0,-100.00,NW,307,2.0,6.0,57,0.00,,,-99.99,,2013-11-15 13:32:00,
2013-11-15 08:42:00,50.0,35.0,-100.00,NW,307,2.0,6.0,57,0.00,,,-99.99,,2013-11-15 13:42:00,
2013-11-15 09:22:00,54.0,37.0,-100.00,West,260,4.0,11.0,52,0.00,,,-99.99,,2013-11-15 14:22:00,
2013-11-15 09:32:00,54.0,37.0,-100.00,West,260,4.0,11.0,52,0.00,,,-99.99,,2013-11-15 14:32:00,
2013-11-15 09:42:00,54.0,37.0,-100.00,West,260,4.0,11.0,52,0.00,,,-99.99,,2013-11-15 14:42:00,
2013-11-15 10:22:00,54.0,40.0,-100.00,WSW,238,6.0,17.0,58,0.00,,,-99.99,,2013-11-15 15:22:00,
2013-11-15 10:33:00,54.0,40.0,-100.00,WSW,238,6.0,17.0,58,0.00,,,-99.99,,2013-11-15 15:33:00,
2013-11-15 10:43:00,54.0,40.0,-100.00,WSW,238,6.0,17.0,58,0.00,,,-99.99,,2013-11-15 15:43:00,
2013-11-15 11:23:00,57.0,42.0,-100.00,WSW,247,6.0,15.0,57,0.00,,,-99.99,,2013-11-15 16:23:00,
2013-11-15 11:33:00,57.0,42.0,-100.00,WSW,247,6.0,15.0,57,0.00,,,-99.99,,2013-11-15 16:33:00,
2013-11-15 11:43:00,57.0,42.0,-100.00,WSW,247,6.0,15.0,57,0.00,,,-99.99,,2013-11-15 16:43:00,
2013-11-15 12:22:00,56.0,43.0,-100.00,WSW,241,6.0,14.0,60,0.00,,,-99.99,,2013-11-15 17:22:00,
2013-11-15 12:32:00,56.0,43.0,-100.00,WSW,241,6.0,14.0,60,0.00,,,-99.99,,2013-11-15 17:32:00,
2013-11-15 12:42:00,56.0,43.0,-100.00,WSW,241,6.0,14.0,60,0.00,,,-99.99,,2013-11-15 17:42:00,
2013-11-15 13:22:00,57.0,47.0,-100.00,WSW,239,5.0,12.0,68,0.00,,,-99.99,,2013-11-15 18:22:00,
2013-11-15 13:32:00,57.0,47.0,-100.00,WSW,239,5.0,12.0,68,0.00,,,-99.99,,2013-11-15 18:32:00,
2013-11-15 13:42:00,57.0,47.0,-100.00,WSW,239,5.0,12.0,68,0.00,,,-99.99,,2013-11-15 18:42:00,
2013-11-15 14:21:00,57.0,48.0,-100.00,SW,231,6.0,13.0,71,0.00,,,-99.99,,2013-11-15 19:21:00,
2013-11-15 14:32:00,57.0,48.0,-100.00,SW,231,6.0,13.0,71,0.00,,,-99.99,,2013-11-15 19:32:00,
2013-11-15 14:42:00,57.0,48.0,-100.00,SW,231,6.0,13.0,71,0.00,,,-99.99,,2013-11-15 19:42:00,
2013-11-15 15:22:00,57.0,47.0,-100.00,WSW,243,6.0,16.0,71,0.00,,,-99.99,,2013-11-15 20:22:00,
2013-11-15 15:32:00,57.0,47.0,-100.00,WSW,243,6.0,16.0,71,0.00,,,-99.99,,2013-11-15 20:32:00,
2013-11-15 15:42:00,57.0,47.0,-100.00,WSW,243,6.0,16.0,71,0.00,,,-99.99,,2013-11-15 20:42:00,
2013-11-15 16:22:00,54.0,48.0,-100.00,SW,235,4.0,12.0,80,0.00,,,-99.99,,2013-11-15 21:22:00,
2013-11-15 16:34:00,54.0,48.0,-100.00,SW,235,4.0,12.0,80,0.00,,,-99.99,,2013-11-15 21:34:00,
2013-11-15 16:43:00,54.0,48.0,-100.00,SW,235,4.0,12.0,80,0.00,,,-99.99,,2013-11-15 21:43:00,
2013-11-15 17:24:00,54.0,49.0,-100.00,SW,231,5.0,12.0,84,0.00,,,-99.99,,2013-11-15 22:24:00,
2013-11-15 17:34:00,54.0,49.0,-100.00,SW,231,5.0,12.0,84,0.00,,,-99.99,,2013-11-15 22:34:00,
2013-11-15 17:43:00,54.0,49.0,-100.00,SW,231,5.0,12.0,84,0.00,,,-99.99,,2013-11-15 22:43:00,
2013-11-15 18:22:00,53.0,49.0,-100.00,SW,230,4.0,9.0,87,0.00,,,-99.99,,2013-11-15 23:22:00,
2013-11-15 18:33:00,53.0,49.0,-100.00,SW,230,4.0,9.0,87,0.00,,,-99.99,,2013-11-15 23:33:00,
2013-11-15 18:43:00,53.0,49.0,-100.00,SW,230,4.0,9.0,87,0.00,,,-99.99,,2013-11-15 23:43:00,
2013-11-15 19:22:00,53.0,50.0,-100.00,SW,226,2.0,6.0,90,0.00,,,-99.99,,2013-11-16 00:22:00,
2013-11-15 19:32:00,53.0,50.0,-100.00,SW,226,2.0,6.0,90,0.00,,,-99.99,,2013-11-16 00:32:00,
2013-11-15 19:42:00,53.0,50.0,-100.00,SW,226,2.0,6.0,90,0.00,,,-99.99,,2013-11-16 00:42:00,
2013-11-15 20:22:00,53.0,49.0,-100.00,SW,233,3.0,10.0,85,0.00,,,-99.99,,2013-11-16 01:22:00,
2013-11-15 20:32:00,53.0,49.0,-100.00,SW,233,3.0,10.0,85,0.00,,,-99.99,,2013-11-16 01:32:00,
2013-11-15 20:42:00,53.0,49.0,-100.00,SW,233,3.0,10.0,85,0.00,,,-99.99,,2013-11-16 01:42:00,
2013-11-15 21:22:00,53.0,48.0,-100.00,WSW,238,3.0,7.0,84,0.00,,,-99.99,,2013-11-16 02:22:00,
2013-11-15 21:32:00,53.0,48.0,-100.00,WSW,238,3.0,7.0,84,0.00,,,-99.99,,2013-11-16 02:32:00,
2013-11-15 21:42:00,53.0,48.0,-100.00,WSW,238,3.0,7.0,84,0.00,,,-99.99,,2013-11-16 02:42:00,
2013-11-15 22:22:00,53.0,47.0,-100.00,WSW,256,3.0,8.0,80,0.00,,,-99.99,,2013-11-16 03:22:00,
2013-11-15 22:34:00,53.0,47.0,-100.00,WSW,256,3.0,8.0,80,0.00,,,-99.99,,2013-11-16 03:34:00,
2013-11-15 22:44:00,53.0,47.0,-100.00,WSW,256,3.0,8.0,80,0.00,,,-99.99,,2013-11-16 03:44:00,
2013-11-15 23:24:00,51.0,48.0,-100.00,WNW,285,3.0,7.0,88,0.00,,,-99.99,,2013-11-16 04:24:00,
2013-11-15 23:34:00,51.0,48.0,-100.00,WNW,285,3.0,7.0,88,0.00,,,-99.99,,2013-11-16 04:34:00,
2013-11-15 23:43:00,51.0,48.0,-100.00,WNW,285,3.0,7.0,88,0.00,,,-99.99,,2013-11-16 04:43:00,